When you browse on this site, cookies collect data to enhance your experience and personalize the content and advertising you see.
Visit our Privacy Policy to learn more. By continuing to use the site, you agree to this use of cookies and data.
  • In Hungary
  • List of Countries
  • For 7 days
  • Water Temperature
  • Satellite Maps
  • Weather Map
  • News
  • Weather Widgets
  • user-avatar
    Login

    Hourly Weather Lezhe

    Today, 19 April, Friday

    Time Temperature Precipitation Wind Pressure Humidity
    00:00 +9°C° 0 mm 3 mps 744 mmHg 68%
    01:00 +9°C° 0 mm 3 mps 744 mmHg 72%
    02:00 +9°C° 0 mm 3 mps 744 mmHg 73%
    03:00 +8°C° 0 mm 3 mps 744 mmHg 73%
    04:00 +8°C° 0 mm 3 mps 744 mmHg 74%
    05:00 +9°C° 0 mm 3 mps 744 mmHg 70%
    06:00 +11°C° 0 mm 3 mps 744 mmHg 66%
    07:00 +13°C° 0 mm 2 mps 744 mmHg 62%
    08:00 +15°C° 0 mm 2 mps 744 mmHg 55%
    09:00 +16°C° 0 mm 2 mps 744 mmHg 48%
    10:00 +18°C° 0 mm 2 mps 744 mmHg 40%
    11:00 +19°C° 0 mm 2 mps 744 mmHg 39%
    12:00 +20°C° 0 mm 3 mps 744 mmHg 38%
    13:00 +20°C° 0 mm 3 mps 744 mmHg 36%
    14:00 +20°C° 0 mm 3 mps 744 mmHg 39%
    15:00 +20°C° 0 mm 4 mps 743 mmHg 42%
    16:00 +19°C° 0 mm 4 mps 743 mmHg 45%
    17:00 +17°C° 0 mm 3 mps 743 mmHg 53%
    18:00 +14°C° 0 mm 3 mps 743 mmHg 61%
    19:00 +14°C° 0 mm 2 mps 743 mmHg 69%
    20:00 +13°C° 0 mm 2 mps 744 mmHg 67%
    21:00 +13°C° 0 mm 2 mps 744 mmHg 66%
    22:00 +12°C° 0 mm 2 mps 744 mmHg 64%
    23:00 +12°C° 0 mm 2 mps 744 mmHg 65%

    Tomorrow, 20 April, Saturday

    Time Temperature Precipitation Wind Pressure Humidity
    00:00 +12°C° 0 mm 2 mps 744 mmHg 65%
    01:00 +10°C° 0 mm 2 mps 744 mmHg 66%
    02:00 +10°C° 0 mm 2 mps 743 mmHg 67%
    03:00 +10°C° 0 mm 2 mps 743 mmHg 68%
    04:00 +9°C° 0 mm 2 mps 743 mmHg 69%
    05:00 +10°C° 0 mm 2 mps 743 mmHg 65%
    06:00 +13°C° 0 mm 2 mps 743 mmHg 61%
    07:00 +13°C° 0 mm 3 mps 743 mmHg 57%
    08:00 +14°C° 0 mm 3 mps 743 mmHg 50%
    09:00 +17°C° 0 mm 3 mps 743 mmHg 42%
    10:00 +18°C° 0 mm 3 mps 743 mmHg 35%
    11:00 +19°C° 0 mm 3 mps 743 mmHg 34%
    12:00 +20°C° 0 mm 3 mps 743 mmHg 33%
    13:00 +21°C° 0 mm 3 mps 742 mmHg 32%
    14:00 +20°C° 0 mm 3 mps 742 mmHg 33%
    15:00 +20°C° 0 mm 4 mps 742 mmHg 35%
    16:00 +20°C° 0 mm 4 mps 742 mmHg 36%
    17:00 +18°C° 0 mm 3 mps 742 mmHg 42%
    18:00 +16°C° 0 mm 3 mps 742 mmHg 47%
    19:00 +13°C° 0 mm 3 mps 742 mmHg 53%
    20:00 +12°C° 0 mm 3 mps 743 mmHg 55%
    21:00 +12°C° 0 mm 3 mps 743 mmHg 58%
    22:00 +11°C° 0 mm 3 mps 743 mmHg 60%
    23:00 +11°C° 0 mm 3 mps 743 mmHg 62%

    Day after tomorrow, 21 April, Sunday

    Time Temperature Precipitation Wind Pressure Humidity
    00:00 +10°C° 0 mm 3 mps 743 mmHg 64%
    01:00 +10°C° 0 mm 3 mps 743 mmHg 67%
    02:00 +10°C° 0 mm 3 mps 743 mmHg 67%
    03:00 +9°C° 0 mm 3 mps 743 mmHg 68%
    04:00 +9°C° 0 mm 3 mps 743 mmHg 69%
    05:00 +10°C° 0 mm 2 mps 743 mmHg 65%
    06:00 +13°C° 0 mm 2 mps 743 mmHg 62%
    07:00 +14°C° 0 mm 2 mps 743 mmHg 59%
    08:00 +15°C° 0 mm 2 mps 743 mmHg 54%
    09:00 +17°C° 0 mm 2 mps 743 mmHg 50%
    10:00 +18°C° 0 mm 2 mps 743 mmHg 45%
    11:00 +18°C° 0 mm 2 mps 742 mmHg 48%
    12:00 +19°C° 0 mm 2 mps 742 mmHg 50%
    13:00 +19°C° 0 mm 3 mps 741 mmHg 52%
    14:00 +18°C° 0 mm 3 mps 741 mmHg 55%
    15:00 +18°C° 0 mm 3 mps 741 mmHg 57%
    16:00 +18°C° 0 mm 2 mps 740 mmHg 60%
    17:00 +16°C° 0 mm 2 mps 740 mmHg 70%
    18:00 +15°C° 0 mm 2 mps 740 mmHg 79%
    19:00 +13°C° 0 mm 1 mps 740 mmHg 89%
    20:00 +12°C° 0 mm 1 mps 740 mmHg 91%
    21:00 +12°C° 0 mm 1 mps 741 mmHg 92%
    22:00 +12°C° 0 mm 1 mps 741 mmHg 94%
    23:00 +11°C° 0 mm 1 mps 741 mmHg 93%

    22 April, Monday

    Time Temperature Precipitation Wind Pressure Humidity
    00:00 +11°C° 0 mm 1 mps 741 mmHg 93%
    01:00 +11°C° 0 mm 1 mps 740 mmHg 92%
    02:00 +11°C° 0 mm 1 mps 740 mmHg 91%
    03:00 +10°C° 0 mm 1 mps 740 mmHg 89%
    04:00 +10°C° 0 mm 1 mps 740 mmHg 88%
    05:00 +11°C° 0 mm 1 mps 739 mmHg 81%
    06:00 +13°C° 0 mm 1 mps 739 mmHg 74%
    07:00 +14°C° 0 mm 1 mps 739 mmHg 68%
    08:00 +16°C° 0 mm 1 mps 739 mmHg 59%
    09:00 +19°C° 0 mm 1 mps 739 mmHg 50%
    10:00 +21°C° 0 mm 1 mps 739 mmHg 41%
    11:00 +21°C° 0 mm 1 mps 738 mmHg 44%
    12:00 +20°C° 0 mm 1 mps 738 mmHg 47%
    13:00 +20°C° 0 mm 1 mps 738 mmHg 50%
    14:00 +20°C° 0 mm 1 mps 737 mmHg 51%
    15:00 +20°C° 0 mm 2 mps 737 mmHg 51%
    16:00 +20°C° 0 mm 2 mps 737 mmHg 52%
    17:00 +19°C° 0 mm 1 mps 737 mmHg 60%
    18:00 +18°C° 0 mm 1 mps 737 mmHg 67%
    19:00 +15°C° 0 mm 1 mps 736 mmHg 75%
    20:00 +15°C° 0.2 mm 1 mps 737 mmHg 76%
    21:00 +15°C° 0.2 mm 1 mps 737 mmHg 78%
    22:00 +14°C° 0.2 mm 1 mps 737 mmHg 80%
    23:00 +14°C° 0.1 mm 2 mps 737 mmHg 79%

    23 April, Tuesday

    Time Temperature Precipitation Wind Pressure Humidity
    00:00 +14°C° 0.1 mm 2 mps 736 mmHg 78%
    01:00 +13°C° 0.1 mm 3 mps 736 mmHg 78%
    02:00 +13°C° 0 mm 3 mps 736 mmHg 78%
    03:00 +12°C° 0 mm 3 mps 736 mmHg 78%
    04:00 +12°C° 0 mm 3 mps 736 mmHg 78%
    05:00 +13°C° 0 mm 3 mps 736 mmHg 74%
    06:00 +14°C° 0 mm 3 mps 736 mmHg 70%
    07:00 +17°C° 0 mm 3 mps 736 mmHg 66%
    08:00 +19°C° 0 mm 3 mps 737 mmHg 56%
    09:00 +21°C° 0 mm 3 mps 737 mmHg 46%
    10:00 +23°C° 0 mm 4 mps 737 mmHg 37%
    11:00 +23°C° 0 mm 4 mps 737 mmHg 39%
    12:00 +23°C° 0 mm 5 mps 737 mmHg 40%
    13:00 +23°C° 0 mm 5 mps 737 mmHg 42%
    14:00 +21°C° 0.2 mm 4 mps 737 mmHg 50%
    15:00 +20°C° 0.2 mm 3 mps 737 mmHg 58%
    16:00 +18°C° 0.2 mm 2 mps 737 mmHg 66%
    17:00 +18°C° 0.2 mm 2 mps 737 mmHg 69%
    18:00 +17°C° 0.2 mm 2 mps 738 mmHg 73%
    19:00 +16°C° 0.2 mm 2 mps 738 mmHg 76%
    20:00 +16°C° 0 mm 2 mps 738 mmHg 77%
    21:00 +15°C° 0 mm 2 mps 739 mmHg 78%
    22:00 +14°C° 0 mm 2 mps 739 mmHg 79%
    23:00 +14°C° 0 mm 2 mps 739 mmHg 78%

    24 April, Wednesday

    Time Temperature Precipitation Wind Pressure Humidity
    00:00 +14°C° 0 mm 2 mps 739 mmHg 77%
    01:00 +14°C° 0 mm 2 mps 740 mmHg 75%
    02:00 +13°C° 0 mm 2 mps 740 mmHg 74%
    03:00 +13°C° 0 mm 2 mps 740 mmHg 73%
    04:00 +13°C° 0 mm 2 mps 740 mmHg 71%
    05:00 +15°C° 0 mm 2 mps 740 mmHg 68%
    06:00 +16°C° 0 mm 2 mps 740 mmHg 64%
    07:00 +17°C° 0 mm 2 mps 740 mmHg 61%
    08:00 +20°C° 0 mm 2 mps 740 mmHg 53%
    09:00 +23°C° 0 mm 1 mps 740 mmHg 46%
    10:00 +25°C° 0 mm 1 mps 740 mmHg 38%
    11:00 +26°C° 0 mm 1 mps 740 mmHg 37%
    12:00 +26°C° 0 mm 2 mps 739 mmHg 36%
    13:00 +27°C° 0 mm 2 mps 739 mmHg 34%
    14:00 +26°C° 0 mm 3 mps 739 mmHg 37%
    15:00 +25°C° 0 mm 3 mps 739 mmHg 40%
    16:00 +25°C° 0 mm 3 mps 739 mmHg 42%
    17:00 +21°C° 0 mm 2 mps 739 mmHg 48%
    18:00 +20°C° 0 mm 1 mps 739 mmHg 54%
    19:00 +16°C° 0 mm 0 mps 739 mmHg 60%
    20:00 +16°C° 0 mm 0 mps 739 mmHg 61%
    21:00 +18°C° 0 mm 1 mps 740 mmHg 63%
    22:00 +16°C° 0 mm 1 mps 740 mmHg 64%
    23:00 +16°C° 0 mm 1 mps 740 mmHg 66%
    Show more